This is the latest recevied weather packets stored in our database for station/object N8VDS-10. If no packets are shown the sender has not sent any weather packets the latest 10 day(s).
| Time | Temp. | Humidity | Pressure | Rain* | Wind** | Luminosity | Snow |
|---|---|---|---|---|---|---|---|
| 1777593736 | 10° C | 43% | 1017.2 hPa | 0 mm | - | 17 W/m² | - |
| 1777593433 | 10° C | 40% | 1017.3 hPa | 0 mm | - | 26 W/m² | - |
| 1777593131 | 10° C | 40% | 1017.2 hPa | 0 mm | - | 33 W/m² | - |
| 1777592830 | 10° C | 41% | 1017.3 hPa | 0 mm | - | 27 W/m² | - |
| 1777592527 | 10° C | 40% | 1017.3 hPa | 0 mm | - | 27 W/m² | - |
| 1777592223 | 10° C | 40% | 1017.1 hPa | 0 mm | - | 40 W/m² | - |
| 1777591919 | 10° C | 39% | 1017.3 hPa | 0 mm | - | 47 W/m² | - |
| 1777591615 | 10.56° C | 39% | 1017.2 hPa | 0 mm | - | 59 W/m² | - |
| 1777591311 | 10.56° C | 40% | 1017.2 hPa | 0 mm | - | 85 W/m² | - |
| 1777591007 | 10.56° C | 41% | 1017.2 hPa | 0 mm | - | 86 W/m² | - |
| 1777590703 | 10.56° C | 41% | 1017.1 hPa | 0 mm | - | 72 W/m² | - |
| 1777590399 | 10.56° C | 41% | 1017 hPa | 0 mm | - | 66 W/m² | - |
| 1777590097 | 10.56° C | 39% | 1017.2 hPa | 0 mm | - | 82 W/m² | - |
| 1777589793 | 10.56° C | 39% | 1017.3 hPa | 0 mm | - | 177 W/m² | - |
| 1777589492 | 10.56° C | 42% | 1017.2 hPa | 0 mm | - | 79 W/m² | - |
| 1777589192 | 10.56° C | 41% | 1017.3 hPa | 0 mm | - | 70 W/m² | - |
| 1777588888 | 10.56° C | 40% | 1017.4 hPa | 0 mm | - | 103 W/m² | - |
| 1777588584 | 10° C | 40% | 1017.3 hPa | 0 mm | - | 113 W/m² | - |
| 1777588280 | 10° C | 40% | 1017.3 hPa | 0 mm | - | 113 W/m² | - |
| 1777587975 | 10° C | 41% | 1017.3 hPa | 0 mm | - | 97 W/m² | - |
| 1777587672 | 10° C | 41% | 1017.3 hPa | 0 mm | - | 101 W/m² | - |
| 1777587371 | 10° C | 41% | 1017.3 hPa | 0 mm | - | 129 W/m² | - |
| 1777587068 | 10° C | 43% | 1017.4 hPa | 0 mm | - | 116 W/m² | - |
| 1777586763 | 10° C | 42% | 1017.4 hPa | 0 mm | - | 102 W/m² | - |
| 1777586459 | 10° C | 42% | 1017.3 hPa | 0 mm | - | 119 W/m² | - |
* Rain latest hour (hover to see other rain measurements)
** Current wind speed in m/s (hover to see current wind gust speed)